GFSSE_con_3kmhel_162.txt.gz
Helicity
2 49 80 53 45 55 95 122 161 183 200 184 175 157 133 111 94 73 59 54 44 45 45 45 46 50 61 77 83 86 79 68 60 54 46 49 48 58 61 74 74 58 74
33 71 85 74 58 57 90 114 138 158 184 189 168 146 119 101 90 82 68 58 59 65 60 53 60 69 77 73 80 82 77 64 53 48 48 47 58 57 79 80 78 69 78
69 47 60 78 64 59 83 97 108 123 153 178 170 142 118 102 84 82 81 78 80 85 80 73 81 82 77 79 89 83 81 65 57 53 44 36 30 66 76 77 88 89 123
30 43 63 63 56 55 70 71 83 99 118 143 164 160 140 124 105 96 91 83 80 82 77 77 85 76 78 98 105 96 85 67 59 53 36 24 23 61 72 89 80 92 128
21 29 43 43 38 41 53 51 60 74 87 110 135 159 163 155 138 116 106 100 89 80 74 73 74 67 68 86 92 88 72 58 55 45 30 25 30 46 66 79 78 78 110
54 40 35 45 32 30 33 40 54 66 64 71 93 121 141 144 143 129 116 99 87 75 73 75 73 72 72 80 74 75 55 42 48 32 28 30 34 44 47 58 81 77 66
84 73 82 111 114 101 52 32 36 56 68 55 55 70 101 128 132 129 128 117 97 85 93 86 77 81 74 84 69 56 45 32 30 30 11 31 30 41 40 43 48 55 72
164 144 134 145 163 149 144 120 82 56 45 47 48 43 51 79 100 106 110 117 106 91 89 82 71 77 72 83 70 46 35 24 26 18 19 26 33 58 61 56 58 52 40
278 246 200 174 156 146 149 139 131 115 77 50 37 43 40 37 48 69 80 82 87 87 91 80 68 72 73 76 68 35 33 34 36 32 26 26 38 60 78 65 55 53 36
322 292 287 240 213 153 118 172 154 129 125 100 58 30 39 56 43 26 32 59 70 75 83 76 61 57 64 58 61 34 29 42 44 38 27 39 34 52 84 93 65 58 39
357 329 292 296 253 201 159 139 144 143 131 109 86 71 44 43 49 59 48 24 39 64 72 73 67 56 62 57 57 37 26 40 43 43 51 41 39 47 72 84 89 76 71
339 320 275 263 233 187 152 131 131 127 133 116 93 79 72 55 50 41 51 57 38 39 64 75 64 56 67 72 70 44 45 33 41 47 55 53 52 60 73 90 98 97 87
229 269 276 219 160 131 111 82 56 67 81 86 141 173 99 66 54 65 79 84 87 69 71 75 94 81 67 84 81 66 54 41 37 50 51 57 66 73 67 85 111 110 100
228 219 197 163 122 117 73 70 74 75 87 80 89 113 116 124 97 84 89 86 103 111 95 82 87 108 84 70 88 90 57 54 53 48 55 58 80 88 75 99 123 127 108
247 207 194 169 141 107 88 90 97 97 80 86 94 117 108 124 143 163 123 128 129 123 115 112 104 109 117 94 86 102 82 63 56 65 73 73 89 98 74 98 127 122 130
249 227 162 142 87 46 40 49 56 84 103 85 62 82 113 86 69 67 107 123 126 134 136 124 137 142 135 135 89 96 109 87 77 73 83 89 86 105 82 77 97 121 124
238 209 211 163 114 80 59 23 -14 -22 -18 -5 16 18 67 53 69 69 74 78 103 195 112 133 128 129 149 177 139 128 122 117 94 93 96 106 101 89 103 79 98 104 111
217 217 197 182 166 132 80 -4 -31 -35 -34 -31 -0 3 30 25 53 53 40 33 76 86 135 162 139 138 121 178 164 160 171 160 133 125 134 133 133 121 105 87 96 107 112
209 178 172 156 162 138 107 68 26 -14 -38 -20 -6 -5 6 44 53 35 19 54 75 57 84 102 193 139 137 134 159 172 190 188 188 176 173 179 173 162 161 124 96 119 122
197 173 158 127 112 111 74 59 35 22 33 32 18 37 45 9 27 7 24 73 54 36 54 93 90 113 275 141 149 162 172 209 197 205 191 222 223 185 178 174 131 83 113
240 212 173 132 74 35 16 11 -18 -9 14 33 40 63 71 104 96 26 -5 -16 48 72 56 85 95 75 60 328 176 181 219 170 199 206 222 221 222 223 215 197 199 180 124
223 156 105 29 -9 -29 -83 -136 -148 -114 -118 -80 -12 27 66 92 79 50 -10 -25 13 20 60 56 50 71 69 37 298 188 217 259 180 190 233 227 220 269 258 237 216 197 192
142 64 6 -48 -60 -64 -52 -58 -52 -100 -4 15 55 56 64 48 43 36 38 7 -25 -1 17 12 43 63 31 62 176 165 201 559 291 253 226 282 246 298 299 299 287 247 223
86 32 -3 -27 -40 -29 -40 -17 -17 -41 -19 3 -3 4 40 55 55 40 32 23 15 -7 -23 10 -12 47 44 35 77 93 172 189 279 255 425 310 296 281 275 329 316 253 240
29 -8 -51 -60 -41 -24 -13 -11 -15 2 -14 -14 -13 -9 11 16 21 19 4 2 2 -8 10 -2 5 30 50 49 73 67 96 146 177 250 260 269 278 272 258 311 407 332 39
-31 -46 -56 -22 -28 -15 -7 -9 -20 -27 -31 -25 -16 -10 2 9 -11 3 -4 -14 -14 -2 26 25 37 13 22 79 89 111 105 100 101 159 193 213 490 509 431 283 321 295 265

GFSSE_con_3kmhel_165.txt.gz
Helicity
25 37 52 77 80 94 77 79 97 122 143 159 157 139 116 111 97 76 68 66 56 46 48 53 61 73 83 88 87 84 77 81 76 69 50 47 44 46 56 66 56 48 64
-4 30 45 65 75 90 73 76 81 98 114 127 133 124 108 98 97 98 90 72 52 46 49 58 63 71 79 84 84 81 78 73 65 58 45 47 51 46 70 56 41 50 71
38 27 43 54 60 68 59 66 71 78 84 99 107 115 116 99 91 94 92 80 68 65 66 65 64 72 72 75 80 77 67 67 62 54 36 38 28 53 62 62 72 59 81
65 58 60 44 39 39 38 54 72 80 79 70 73 86 100 109 97 86 89 88 78 73 73 71 75 76 76 80 83 69 64 62 62 37 29 9 38 53 53 49 46 75 88
120 122 150 130 105 83 55 37 41 49 65 69 62 58 65 80 92 96 92 88 86 83 75 66 69 70 72 75 80 61 63 59 58 22 13 18 25 48 54 55 61 64 65
115 112 136 130 145 144 118 98 82 54 45 42 53 45 38 41 56 72 80 84 81 82 81 75 74 67 71 70 73 63 54 50 29 28 27 21 22 52 51 49 53 59 67
128 115 119 141 111 113 130 142 125 104 81 50 34 34 44 44 33 37 53 69 73 66 68 66 68 59 62 58 63 62 47 44 24 21 22 21 35 46 49 50 40 40 38
153 139 143 143 146 129 149 146 134 135 117 93 72 45 25 25 35 37 31 37 57 62 63 56 61 57 62 49 43 51 42 32 25 23 26 33 54 36 44 51 43 38 29
204 188 174 164 154 122 134 137 148 155 131 106 92 71 53 31 21 22 31 35 38 41 42 43 47 50 57 54 33 41 37 34 23 30 32 33 66 37 67 67 64 44 28
245 240 250 211 185 160 121 167 183 187 178 151 120 90 73 58 37 23 27 28 32 44 47 35 32 44 45 55 36 35 32 28 22 24 31 40 49 51 75 83 72 62 41
282 288 271 258 216 156 109 131 124 141 174 179 155 128 92 79 62 44 36 40 31 33 41 53 37 36 46 43 31 26 33 32 31 24 19 43 39 51 72 78 77 78 60
297 275 210 176 162 114 84 89 75 92 105 109 122 141 121 93 70 66 64 47 39 45 39 44 46 49 45 42 49 38 40 34 34 25 18 52 48 52 62 84 80 81 79
179 163 182 148 118 88 64 38 35 46 68 78 104 130 130 115 131 116 90 79 66 66 49 55 52 50 48 52 48 52 42 38 40 37 27 50 55 62 69 87 94 95 94
184 200 198 174 142 124 64 56 57 62 61 60 67 95 72 55 77 81 88 98 99 79 62 63 77 65 42 42 47 41 41 48 50 45 35 64 63 64 74 84 86 112 123
191 194 217 209 194 151 108 57 39 33 20 19 29 55 62 71 68 62 61 65 81 110 122 92 69 68 71 46 38 50 37 42 45 52 50 61 81 83 80 68 90 135 136
239 242 214 206 167 132 104 77 45 25 16 17 16 33 48 40 42 45 53 69 82 75 77 90 114 85 92 89 49 38 46 47 56 52 55 55 72 87 97 83 66 103 123
274 264 249 213 188 160 112 73 45 37 20 18 16 38 43 53 56 48 45 65 72 74 89 71 102 132 116 104 93 65 65 59 72 83 80 74 82 89 98 97 80 99 93
292 290 245 197 190 156 117 70 42 37 32 34 35 40 64 66 70 45 46 65 80 83 78 96 110 116 177 124 123 118 88 74 76 113 118 111 104 112 111 94 91 94 109
274 250 222 178 176 134 85 40 37 39 36 37 42 36 53 53 65 48 49 67 89 86 86 88 104 135 122 134 176 113 115 89 59 98 110 122 118 132 141 120 108 102 111
230 204 173 142 135 114 87 74 66 61 72 67 55 68 103 106 90 61 76 95 95 74 83 95 87 102 136 135 115 95 164 123 137 91 126 127 144 133 136 157 132 114 115
225 215 211 193 169 129 119 94 71 75 68 76 102 133 133 118 130 129 96 69 64 51 63 60 41 55 87 140 145 100 59 120 124 171 117 135 134 167 156 155 193 161 154
231 190 147 90 50 21 -1 -5 -27 -1 23 39 60 62 72 91 108 101 101 84 81 47 25 23 47 31 18 75 71 111 62 50 71 265 115 108 159 200 190 201 168 172 167
194 142 99 65 49 46 35 24 21 -5 14 34 48 49 52 54 65 69 72 60 56 38 28 17 17 48 47 38 97 73 61 145 174 165 169 146 152 225 220 226 215 228 198
144 83 70 55 44 32 32 29 30 12 30 31 29 43 61 69 72 80 78 63 39 15 17 31 48 46 40 49 32 74 145 149 112 141 174 169 136 195 203 246 191 220 268
119 90 58 54 53 47 34 30 17 17 3 -3 5 21 24 31 42 53 56 36 18 -5 6 34 65 60 68 53 44 56 97 122 178 160 121 90 152 257 258 327 309 162 205
83 57 33 39 33 29 29 32 25 15 2 -2 7 12 10 5 17 29 42 40 27 -9 -1 35 58 49 82 113 67 35 62 79 101 180 212 190 167 151 213 269 331 317 294

GFSSE_con_3kmhel_168.txt.gz
Helicity
18 48 42 49 63 66 61 60 59 71 76 75 78 80 79 81 77 66 48 32 23 14 18 29 40 47 53 60 65 64 71 65 62 53 44 44 49 41 39 41 11 51 48
30 50 38 40 54 56 50 49 42 55 61 61 57 58 64 64 70 67 52 34 24 16 20 33 50 54 60 61 61 68 69 60 58 44 18 39 56 32 41 30 25 65 64
70 61 79 93 86 72 54 44 32 31 42 50 41 33 33 47 55 54 46 37 29 26 29 34 46 48 50 56 62 69 66 63 57 29 -15 3 65 38 38 34 33 42 73
94 112 120 120 113 101 91 77 61 41 33 32 42 42 29 27 30 42 48 44 38 31 34 41 51 49 50 55 59 69 67 62 46 1 9 -6 83 40 37 28 50 53 85
91 110 142 132 107 99 95 90 88 78 60 34 21 20 22 23 27 29 37 42 44 41 42 46 56 55 51 51 57 69 69 61 40 -0 21 15 69 62 48 45 63 47 46
56 93 135 162 154 142 122 112 103 101 92 73 43 26 20 18 22 23 25 23 25 33 46 46 48 51 52 52 58 66 62 51 21 26 19 34 47 80 60 44 68 77 64
70 81 100 156 151 148 150 140 123 111 104 90 79 60 39 20 28 29 22 23 21 12 14 37 39 44 39 45 49 58 55 42 3 11 18 16 68 85 66 45 50 51 51
96 97 100 110 135 151 171 170 166 154 136 112 97 85 70 64 46 26 31 25 20 14 17 30 27 32 28 29 40 46 43 31 26 16 17 29 131 80 68 56 58 46 33
132 146 157 152 138 101 136 162 161 166 157 142 129 113 93 77 56 40 27 29 29 22 19 21 23 22 35 17 24 37 36 33 -5 15 13 18 143 78 57 59 57 55 39
164 184 185 162 130 106 86 125 117 129 139 162 160 153 86 62 74 56 40 39 44 32 29 26 28 29 27 31 20 24 41 32 11 7 24 51 90 69 61 71 69 64 56
178 192 170 151 128 99 76 74 69 81 83 81 93 112 124 98 85 75 89 82 67 53 43 40 38 39 38 30 31 35 31 26 22 30 28 135 89 65 59 70 75 71 59
200 179 136 119 103 74 55 58 55 60 59 72 84 87 72 73 81 98 105 105 76 55 55 59 59 56 60 29 41 42 36 11 25 28 30 122 79 60 57 77 83 79 66
162 145 148 129 113 96 73 52 40 35 39 43 73 78 59 48 48 44 33 41 67 115 82 70 59 59 46 58 49 49 23 24 25 27 34 125 88 69 61 67 100 87 84
166 162 157 150 145 139 90 74 55 34 19 11 10 25 13 11 20 28 35 47 60 62 80 117 109 61 47 60 49 44 44 21 28 24 27 133 102 85 72 60 80 80 95
181 182 189 180 170 150 124 88 71 55 39 28 32 39 42 36 29 21 23 27 32 40 56 75 70 85 100 55 64 53 43 45 29 24 28 105 108 90 75 70 70 79 105
182 200 182 179 158 124 105 88 62 47 35 33 37 51 58 49 45 41 41 45 49 44 47 50 73 102 89 104 72 64 65 57 55 45 41 47 114 113 104 82 66 68 104
201 204 207 189 168 136 101 73 50 52 47 55 56 63 76 80 72 61 56 61 66 56 62 72 81 89 95 96 129 106 73 77 74 70 62 66 75 119 137 120 92 81 95
246 243 227 193 161 117 91 61 49 52 52 63 75 84 98 86 84 70 69 74 76 65 69 81 88 97 105 119 115 115 160 111 76 77 99 96 84 69 107 151 141 124 120
234 222 204 174 157 128 101 68 60 66 69 72 76 76 82 87 91 77 76 83 82 72 73 85 96 94 88 108 127 113 125 129 149 119 116 88 103 101 86 111 166 156 154
238 219 195 163 148 106 89 71 74 82 85 85 86 91 97 95 104 100 100 87 76 76 83 87 79 71 62 73 80 106 119 99 119 122 160 132 129 111 86 86 121 146 163
231 211 192 172 176 136 121 109 70 74 63 69 82 98 108 113 116 112 113 112 105 88 75 62 51 46 51 46 55 92 65 88 91 92 96 146 128 143 132 98 114 136 173
228 196 177 158 133 106 75 69 51 61 62 72 75 74 92 88 90 83 91 90 93 78 71 67 42 13 15 34 -5 9 23 123 115 266 187 122 163 158 213 96 99 108 139
208 184 155 132 105 94 72 61 57 53 59 78 78 66 65 59 54 56 62 61 65 66 66 58 51 53 31 25 36 31 -7 75 154 171 245 296 182 172 218 156 102 115 126
187 139 126 94 86 74 79 75 89 92 100 76 58 57 52 59 60 69 72 71 68 65 55 52 49 45 39 37 71 74 91 98 26 -40 111 236 252 243 140 203 126 142 170
164 132 100 88 87 89 92 100 92 90 61 47 40 34 32 38 43 57 66 67 71 67 64 53 39 34 52 75 98 105 110 94 92 81 2 22 141 101 41 102 113 196 185
147 124 111 100 96 81 81 82 76 60 39 31 31 21 34 33 43 52 65 64 73 79 86 83 72 73 73 72 66 67 62 60 58 76 86 75 60 96 220 155 91 192 217

GFSSE_con_3kmhel_171.txt.gz
Helicity
87 55 56 40 41 34 34 34 36 25 17 20 26 21 17 7 -6 1 2 -2 0 3 9 14 16 25 37 39 49 54 56 52 48 40 27 28 44 41 24 30 28 42 58
133 74 94 87 80 68 58 52 47 38 16 10 13 17 15 7 -1 -4 -5 -5 -5 -1 9 16 20 27 33 38 49 52 51 45 40 19 3 38 60 42 39 34 52 65 59
168 109 100 82 75 81 81 75 68 61 46 30 16 9 5 0 -11 -12 -7 -2 -2 5 14 16 19 24 28 38 49 53 50 43 28 -6 -28 22 65 50 36 28 56 73 75
79 96 110 89 83 81 84 79 79 77 68 59 47 31 10 4 -3 -13 -17 -21 -15 -5 11 21 27 29 30 37 53 56 54 41 19 -3 3 33 68 53 40 47 69 74 75
37 67 114 139 120 106 99 100 93 87 78 64 57 49 35 19 13 -1 3 -6 -7 -5 1 5 16 25 29 39 49 52 51 37 11 -16 9 88 63 90 59 57 68 68 50
24 53 96 134 134 125 114 111 112 107 100 95 84 65 46 29 21 25 19 9 -12 -2 7 14 25 21 18 24 35 43 41 28 10 4 51 86 53 117 78 77 94 92 82
40 45 70 102 123 140 145 142 128 114 103 97 91 84 71 58 51 39 30 20 14 8 11 9 27 19 17 17 29 33 29 24 2 -31 0 34 161 119 94 74 75 78 63
63 59 74 81 90 100 129 131 133 136 137 131 122 100 76 64 61 54 44 30 26 18 19 23 29 27 28 24 20 25 28 20 -5 11 21 60 156 126 104 70 65 63 56
86 101 111 116 90 79 101 127 125 116 114 120 114 112 84 53 55 52 44 40 42 36 34 32 28 37 28 29 29 27 21 26 8 -17 -26 64 133 131 110 80 72 69 47
103 117 132 135 127 104 88 86 73 71 71 58 55 79 82 90 73 55 64 107 82 60 44 35 43 52 51 37 37 36 35 21 23 2 -12 143 173 122 92 79 69 66 63
121 132 139 128 114 87 62 60 47 49 53 63 82 75 49 53 54 71 75 95 86 71 43 40 40 51 55 52 59 77 73 47 14 28 32 176 156 118 96 91 78 76 78
177 148 109 108 103 76 63 58 52 54 56 60 69 71 53 46 49 22 22 17 7 74 85 57 58 62 72 47 45 154 90 17 22 17 10 142 119 97 98 104 96 84 79
158 126 108 86 86 82 64 48 41 33 26 15 22 25 15 15 15 20 24 32 32 27 55 69 84 97 85 57 38 43 75 63 59 46 22 170 140 100 85 95 113 95 84
136 124 119 114 112 118 89 81 66 56 41 33 36 48 35 29 34 36 37 38 39 46 38 37 44 66 61 84 78 70 95 103 71 50 44 197 151 122 84 81 103 107 100
148 152 161 159 152 138 125 97 85 75 65 60 56 55 51 51 53 57 60 64 68 65 58 53 48 59 57 96 97 104 99 81 71 84 74 145 154 135 113 92 84 102 99
157 158 159 166 156 137 126 112 93 85 71 61 53 59 74 67 59 55 61 75 86 86 84 76 87 74 68 69 68 110 93 113 96 81 70 111 197 158 138 128 98 98 105
162 170 181 185 180 161 129 104 86 79 71 78 82 82 75 60 65 74 83 89 92 70 73 83 89 102 103 93 83 83 82 102 94 127 106 106 105 191 147 126 136 98 125
183 198 199 182 160 138 109 84 71 73 72 76 77 76 76 69 72 62 69 88 90 88 93 100 108 102 97 89 90 92 104 90 80 90 100 123 96 99 181 143 134 145 112
201 200 196 185 165 134 96 70 65 68 68 70 72 77 74 77 82 90 99 98 80 84 88 93 80 71 65 64 70 65 60 75 89 75 98 75 93 90 94 148 146 136 169
217 217 199 175 157 113 97 91 97 88 92 85 85 92 93 99 109 106 109 108 98 96 103 100 88 77 61 47 31 26 32 41 62 85 65 73 76 97 112 97 162 149 160
228 221 210 188 164 130 127 117 98 89 91 98 109 112 128 127 124 113 109 104 104 101 96 96 84 71 64 65 44 43 18 10 25 15 103 131 125 44 53 99 115 179 177
236 211 190 173 163 148 117 99 79 82 87 94 101 91 106 88 87 80 85 88 101 92 97 97 87 75 60 57 22 -22 -89 -21 3 208 190 233 219 190 216 119 90 128 172
228 207 188 173 163 148 120 99 90 79 88 103 98 97 95 85 83 84 81 76 72 81 86 87 86 82 45 43 57 31 -34 -32 -36 -44 109 83 140 121 137 149 232 95 124
227 199 191 180 162 138 121 103 101 104 111 104 95 94 82 86 84 86 82 82 71 68 68 67 73 71 62 40 47 43 81 59 10 -86 -48 6 64 73 88 69 -17 199 99
227 211 191 173 150 120 107 102 96 106 101 94 90 86 69 74 64 70 73 71 79 82 88 70 67 85 84 84 65 57 55 46 62 53 -16 -56 -16 45 63 50 63 18 212
217 197 179 151 140 114 103 107 102 97 90 90 82 64 72 57 73 84 74 74 75 85 85 78 85 88 102 106 101 98 67 73 78 70 46 16 -21 -39 38 51 3 -23 8

GFSSE_con_3kmhel_174.txt.gz
Helicity
9 54 80 75 67 63 49 48 53 48 44 38 18 -0 -11 -17 -19 -18 -16 -14 -10 -9 -3 1 4 8 14 22 29 31 33 32 24 19 24 30 42 39 42 47 60 65 58
22 69 92 79 75 74 69 57 53 53 53 49 43 36 15 -1 -5 -11 -10 -12 -14 -12 -5 -0 3 12 19 26 27 24 25 19 6 1 10 25 50 19 41 51 68 60 67
124 65 72 83 85 82 71 63 62 60 59 52 44 39 36 25 9 1 -4 -7 -1 -2 -1 3 6 9 13 19 21 22 22 13 -6 -12 7 -10 73 36 53 60 67 70 75
55 60 73 85 78 74 70 68 67 67 66 65 58 49 42 34 27 13 4 5 2 -2 -1 6 13 14 16 18 21 20 16 3 -12 -17 8 9 96 55 63 65 68 68 79
28 53 70 97 100 91 76 69 70 68 64 61 58 57 48 41 36 28 20 17 8 -3 5 1 24 22 20 19 22 19 16 7 -13 -27 21 7 95 82 75 67 76 70 77
25 44 59 92 113 114 109 106 94 80 74 71 66 60 56 50 37 35 30 27 27 21 17 14 23 31 26 23 22 27 23 9 -9 -12 -0 34 106 115 91 121 103 81 81
67 54 63 62 82 99 110 117 119 113 110 107 95 86 69 53 44 41 32 31 32 32 31 36 39 36 33 26 24 22 24 21 12 9 34 75 197 133 103 124 99 83 78
77 81 71 84 80 93 108 114 107 101 98 98 94 84 76 50 51 40 32 42 36 36 30 33 35 39 44 40 35 31 29 30 21 7 -32 10 221 146 115 117 111 86 87
113 108 106 87 86 89 99 93 90 87 83 78 71 69 68 66 65 63 74 83 67 56 40 31 34 34 40 44 40 42 43 38 56 44 9 105 159 153 119 114 117 88 79
104 117 121 117 98 68 55 50 57 58 58 82 86 118 63 42 52 61 45 36 33 52 54 41 34 40 44 45 50 48 62 66 80 66 43 100 190 161 162 117 116 105 84
118 98 102 98 88 61 47 42 40 52 59 70 96 122 91 81 61 67 65 57 44 33 24 39 47 39 37 47 52 78 107 123 97 58 50 130 218 174 129 104 113 107 97
157 125 92 100 124 71 72 73 59 71 61 43 62 89 78 45 58 68 68 73 78 63 53 72 64 70 71 59 36 20 76 114 101 49 -19 170 191 150 108 110 132 117 106
163 144 96 85 107 102 80 83 71 68 55 42 40 66 67 41 47 71 54 82 71 44 38 48 67 49 44 64 64 63 65 73 95 149 -41 212 199 166 126 141 140 141 118
183 153 111 106 106 116 91 96 95 65 70 42 35 55 57 46 57 71 72 92 85 54 85 63 87 79 88 77 53 34 50 34 59 40 127 159 183 173 166 129 140 162 138
185 168 158 139 138 127 124 103 94 96 59 65 45 50 57 64 66 71 83 84 93 74 94 89 94 95 109 94 87 72 37 53 32 33 2 62 122 152 172 147 115 133 144
177 163 146 152 146 135 129 117 99 94 84 77 55 21 51 54 66 84 87 86 77 81 84 79 83 103 100 104 99 104 101 80 76 67 53 32 28 100 133 151 147 134 149
172 162 147 147 155 156 136 133 111 114 101 97 86 61 51 32 39 60 64 64 66 103 105 108 103 101 107 94 105 100 97 88 77 76 69 62 13 16 101 121 144 151 144
190 172 186 176 168 158 150 131 102 92 97 83 70 61 64 61 74 97 112 96 78 81 95 98 99 95 94 83 83 90 70 73 88 90 105 116 72 33 18 66 103 107 158
175 181 185 187 183 167 142 101 73 69 77 67 64 57 55 61 62 78 99 99 109 110 115 104 90 76 66 67 65 59 56 58 72 65 76 92 108 100 49 29 9 90 117
197 188 193 191 180 151 127 97 111 103 87 83 75 64 79 83 95 98 104 107 102 110 102 102 99 99 81 78 60 45 54 77 45 125 108 107 167 235 165 143 117 38 109
190 202 200 203 191 156 157 150 143 126 106 100 91 88 103 87 100 104 104 106 97 100 107 118 88 85 68 59 5 11 -5 6 34 105 78 85 68 103 76 76 94 80 102
228 212 202 216 226 215 154 129 103 90 85 88 93 93 104 80 64 71 64 69 76 65 79 83 107 71 51 47 18 -10 -51 -43 65 7 52 27 28 -12 4 -7 33 61 13
232 239 245 238 223 203 145 131 112 94 105 120 100 110 91 93 90 82 92 101 96 101 74 64 69 70 40 51 72 20 -15 25 -16 -66 19 -6 32 28 40 50 50 6 30
282 267 262 239 198 185 186 154 146 138 131 100 107 117 97 118 96 123 128 98 92 103 103 69 57 48 47 38 43 61 89 80 31 -37 -19 20 -8 23 30 33 59 50 -6
279 259 246 235 214 192 179 173 153 135 108 101 106 103 111 100 113 110 75 90 99 78 68 68 63 65 63 62 57 68 79 96 101 95 15 16 22 -10 17 30 46 58 79
270 258 213 217 224 201 181 159 142 128 98 102 100 99 104 85 97 98 112 100 82 79 64 46 49 46 53 60 65 71 72 67 68 76 74 47 30 17 -26 10 39 64 56